Location: Plzen
(49.7500°N, 13.3670°E)
Time: 17:16:39
(UTC+02:00)

ISS - Visible Passes

Search period start: 28 September 2023 00:00
Search period end: 08 October 2023 00:00
Orbit: 413 x 421 km, 51.6° (Epoch: 28 September)

Date Brightness Start Highest point End Pass type
(mag) Time Alt. Az. Time Alt. Az. Time Alt. Az.
28 Sep -3.7 20:04:51 10° WNW 20:08:11 72° SSW 20:10:02 24° ESE visible
28 Sep -0.8 21:42:12 10° W 21:42:57 13° WSW 21:42:57 13° WSW visible
29 Sep -3.8 19:16:33 10° WNW 19:19:55 88° NNE 19:23:15 10° ESE visible
29 Sep -2.1 20:53:35 10° W 20:56:24 26° SW 20:56:37 25° SSW visible
30 Sep -2.6 20:05:05 10° W 20:08:12 37° SSW 20:10:18 17° SSE visible
01 Oct -3.1 19:16:37 10° WNW 19:19:54 54° SSW 19:23:09 10° SE visible
01 Oct -1.0 20:54:41 10° WSW 20:56:03 12° SW 20:56:56 11° SSW visible
02 Oct -1.3 20:05:28 10° W 20:07:50 18° SW 20:10:12 10° S visible
03 Oct -1.8 19:16:38 10° W 19:19:30 27° SW 19:22:22 10° SSE visible
05 Oct -0.8 19:17:08 10° WSW 19:18:44 13° SW 19:20:19 10° SSW visible
